Temperature
1 1 1 1 2 1 2 2 2 3 3 4 3 3 3 3 3 3 3 3 3 3 3 2 2 2 2 2 2 2 2 2 2 2 2 2 2 1 1 1 1 1 1 1
-0 1 1 1 2 2 2 2 2 2 3 4 3 3 3 3 3 3 3 3 3 2 2 2 2 2 1 1 1 1 1 1 1 1 1 1 1 1 1 1 1 0 0 0
0 0 1 1 1 2 1 1 2 2 3 3 2 2 2 3 3 3 2 3 2 2 2 2 2 1 1 1 1 1 1 1 1 1 1 1 1 1 0 0 0 0 0 -0
-1 -0 1 2 1 2 2 2 2 2 2 2 2 3 3 3 3 3 3 2 2 2 2 2 1 1 1 1 1 1 1 1 0 0 0 0 0 0 0 -0 -0 -0 -0 -0
-1 -0 0 1 1 1 1 1 1 1 2 1 2 2 2 3 3 3 3 2 2 2 2 1 1 1 1 1 1 1 0 0 0 0 0 -0 -0 -0 -0 -0 -1 -1 -1 -1
-1 -0 0 2 1 1 1 1 1 1 1 1 1 0 1 2 2 2 2 2 2 1 1 1 1 1 0 0 0 0 0 0 -0 -0 -0 -0 -1 -1 -1 -1 -1 -1 -1 -1
-1 -1 -0 0 0 1 1 1 1 1 1 1 1 1 2 2 2 2 2 1 1 1 1 1 0 0 -0 -0 -0 -0 -0 -0 -1 -1 -1 -1 -1 -1 -1 -2 -2 -2 -2 -2
-2 -1 -0 0 -0 -0 1 1 1 1 1 1 1 1 1 1 1 1 1 1 1 0 0 0 0 -0 -0 -0 -0 -0 -0 -1 -1 -1 -1 -1 -2 -2 -2 -2 -2 -2 -2 -2
-2 -0 -0 0 0 1 1 1 1 1 2 1 1 1 1 1 1 1 1 1 0 -0 -0 -0 -0 -1 -1 -1 -1 -1 -1 -1 -1 -2 -2 -2 -2 -2 -2 -2 -3 -3 -3 -3
-3 -2 -1 -0 0 1 1 1 1 1 1 1 1 1 0 0 0 0 0 -0 -0 -1 -1 -1 -1 -1 -1 -1 -1 -1 -1 -1 -2 -2 -2 -2 -3 -3 -3 -3 -3 -3 -3 -3
-3 -2 -1 -0 0 0 1 1 1 1 1 1 1 0 0 0 -0 -0 -0 -1 -1 -1 -1 -1 -1 -2 -2 -2 -2 -2 -2 -2 -2 -2 -3 -3 -3 -3 -3 -3 -3 -3 -3 -3
-2 -1 -2 -1 0 0 -0 -0 -0 0 0 0 0 0 -0 -0 -0 -1 -1 -1 -1 -1 -2 -2 -2 -2 -2 -2 -2 -2 -2 -2 -3 -3 -3 -3 -3 -4 -4 -4 -4 -4 -4 -4
-1 -0 -1 -1 -1 -1 -1 -1 -1 -0 -0 -0 -0 -0 -0 -1 -1 -1 -1 -2 -2 -2 -2 -2 -2 -2 -2 -3 -3 -3 -3 -3 -3 -3 -4 -4 -4 -4 -4 -4 -4 -4 -4 -4
-1 -1 -2 -2 -2 -1 -1 -1 -1 -1 -1 -1 -1 -1 -1 -1 -1 -2 -2 -2 -2 -2 -2 -2 -2 -3 -3 -3 -3 -3 -3 -3 -4 -4 -4 -4 -4 -4 -4 -4 -4 -4 -4 -5
-2 -2 -2 -2 -2 -2 -2 -2 -2 -2 -2 -2 -1 -2 -2 -2 -2 -2 -2 -3 -3 -3 -3 -3 -3 -3 -3 -3 -3 -4 -4 -4 -4 -4 -4 -4 -4 -5 -5 -5 -5 -5 -5 -5
-3 -3 -3 -3 -3 -3 -3 -2 -2 -2 -2 -2 -2 -2 -2 -3 -3 -3 -3 -3 -3 -3 -3 -3 -3 -3 -3 -4 -4 -4 -4 -4 -4 -4 -4 -5 -5 -5 -5 -5 -5 -5 -5 -5
-4 -4 -4 -3 -3 -3 -3 -3 -3 -3 -3 -3 -3 -3 -3 -3 -3 -3 -3 -3 -3 -3 -3 -3 -3 -3 -4 -4 -4 -4 -4 -4 -5 -5 -5 -5 -5 -5 -5 -5 -5 -5 -5 -5
-4 -3 -3 -3 -3 -3 -3 -3 -3 -3 -3 -3 -3 -3 -4 -4 -4 -3 -3 -3 -4 -4 -4 -4 -4 -4 -4 -4 -5 -5 -5 -5 -5 -5 -5 -5 -5 -5 -5 -5 -5 -5 -5 -5
-3 -4 -3 -3 -4 -4 -3 -3 -4 -4 -4 -4 -4 -4 -4 -4 -4 -4 -4 -4 -4 -4 -4 -4 -4 -4 -4 -5 -5 -5 -5 -5 -5 -5 -5 -5 -5 -5 -5 -5 -5 -5 -5 -5
-4 -4 -4 -4 -4 -4 -4 -4 -4 -4 -4 -4 -4 -4 -4 -5 -5 -5 -4 -4 -4 -4 -4 -4 -5 -5 -5 -5 -5 -5 -5 -5 -5 -5 -6 -5 -6 -6 -6 -6 -5 -6 -5 -6
-4 -4 -4 -4 -4 -4 -5 -5 -5 -5 -5 -5 -5 -5 -5 -5 -5 -5 -5 -5 -4 -5 -5 -5 -5 -5 -5 -5 -5 -6 -6 -6 -6 -6 -6 -6 -6 -6 -6 -6 -6 -6 -6 -6
-4 -4 -4 -5 -5 -5 -5 -5 -5 -5 -5 -5 -5 -5 -5 -5 -5 -5 -5 -5 -5 -5 -5 -5 -5 -5 -6 -6 -6 -6 -6 -6 -6 -6 -6 -6 -6 -6 -6 -6 -6 -6 -6 -6
-4 -5 -5 -5 -5 -5 -5 -5 -5 -5 -5 -5 -6 -6 -6 -6 -6 -6 -6 -5 -5 -5 -5 -5 -5 -6 -6 -6 -6 -6 -6 -6 -6 -6 -6 -6 -6 -6 -6 -6 -6 -6 -6 -6
-5 -5 -5 -6 -6 -6 -6 -6 -6 -6 -6 -6 -6 -6 -6 -6 -6 -6 -6 -6 -6 -6 -6 -6 -6 -6 -6 -6 -6 -6 -6 -6 -6 -6 -6 -6 -6 -6 -6 -6 -6 -6 -6 -6
-5 -6 -6 -6 -6 -6 -6 -6 -6 -6 -6 -6 -6 -6 -6 -6 -6 -6 -6 -6 -6 -6 -6 -6 -6 -6 -6 -6 -6 -6 -6 -6 -6 -6 -6 -6 -6 -6 -6 -6 -6 -6 -6 -6
-6 -6 -6 -6 -6 -6 -6 -7 -7 -7 -7 -7 -7 -7 -7 -7 -7 -7 -7 -7 -7 -6 -6 -6 -7 -7 -7 -7 -7 -7 -7 -7 -6 -6 -6 -6 -6 -6 -6 -7 -7 -7 -7 -7
-6 -6 -6 -6 -6 -7 -7 -7 -7 -7 -7 -7 -7 -7 -7 -7 -7 -7 -7 -7 -7 -7 -7 -7 -7 -7 -7 -7 -7 -7 -7 -7 -7 -7 -7 -7 -7 -7 -7 -7 -7 -7 -7 -7
Wind_Speed
8 8 5 7 9 8 10 10 10 11 13 13 8 7 5 4 4 4 4 4 5 4 3 2 2 2 1 1 1 2 2 2 1 1 2 2 1 1 1 1 1 1 1 1
6 6 7 9 10 11 11 10 12 12 15 10 5 4 4 4 5 5 5 5 5 4 4 4 3 3 2 1 1 2 2 2 1 1 1 1 1 1 1 1 1 1 1 1
5 5 4 7 9 10 7 7 8 12 14 5 4 6 7 7 7 7 6 5 5 5 5 4 4 3 3 3 1 2 2 1 1 2 1 1 1 1 1 1 1 1 1 1
2 0 6 7 3 6 8 8 9 9 8 6 6 5 5 5 6 6 5 5 5 4 4 3 3 3 3 2 2 2 2 2 1 1 1 1 1 0 1 1 1 2 1 2
2 4 7 7 4 3 5 7 6 9 8 4 1 2 4 4 4 5 6 5 4 4 3 3 3 3 2 2 2 2 3 2 2 2 1 1 0 1 1 1 1 1 1 2
3 3 6 6 4 1 2 5 5 5 6 3 2 2 5 3 2 2 2 2 2 2 2 3 2 2 3 2 2 3 3 3 2 2 2 2 1 1 1 1 1 1 1 2
5 5 7 6 3 2 2 6 5 3 4 4 4 5 3 2 1 1 2 2 2 2 2 2 2 3 2 2 2 2 2 2 2 2 2 2 1 1 1 1 1 1 2 2
3 4 7 3 2 3 6 5 4 4 4 4 3 2 2 2 2 2 1 2 2 2 1 1 2 3 2 2 2 1 2 2 2 1 1 1 1 1 1 1 0 1 1 2
7 7 5 4 6 6 5 6 6 4 4 3 2 3 2 2 2 1 1 1 2 3 2 0 1 2 2 2 1 1 1 2 1 1 1 1 1 1 1 0 1 1 1 2
5 8 8 7 6 5 5 6 6 5 4 3 3 4 3 2 2 1 1 1 2 2 2 1 0 0 1 1 1 1 2 2 1 1 1 0 1 1 1 1 1 2 2 2
7 8 7 6 6 7 6 5 5 4 4 4 4 4 4 3 3 2 1 1 2 2 2 2 1 0 1 1 1 1 1 1 1 1 1 1 0 1 2 3 3 3 3 3
8 8 6 7 6 5 5 6 5 4 3 2 3 4 3 3 2 2 2 2 2 2 2 1 1 1 1 1 2 2 1 1 1 1 1 1 1 1 2 2 3 4 4 4
8 7 6 7 6 5 4 5 4 3 3 2 1 3 3 2 2 2 2 2 2 2 2 2 1 2 2 2 2 2 2 2 1 1 1 1 1 1 2 3 3 3 4 4
6 4 5 5 6 5 4 3 3 2 1 1 2 2 2 2 1 2 2 2 2 2 2 2 2 2 2 1 2 2 2 2 2 2 2 2 2 2 1 1 2 2 3 4
5 4 5 5 4 3 2 1 2 1 1 1 1 2 2 2 2 2 2 2 2 2 2 2 2 3 2 1 2 2 2 2 2 2 1 2 2 1 1 1 1 2 2 3
5 4 3 3 4 3 2 1 1 2 1 0 0 0 1 1 1 1 1 2 2 3 3 3 3 3 2 2 2 2 2 3 2 1 1 1 1 1 1 1 2 2 2 3
3 4 3 3 4 3 2 2 2 2 1 1 1 1 1 1 0 1 1 1 2 3 3 3 3 2 2 2 2 2 2 2 2 1 1 2 2 2 2 2 2 2 3 3
5 5 5 4 4 3 3 2 2 2 2 2 1 1 1 1 2 2 2 1 1 2 2 2 2 2 2 2 2 2 2 2 2 2 2 2 2 2 2 2 2 3 3 3
3 2 2 2 2 2 2 3 2 2 1 1 1 1 1 2 2 2 1 1 1 3 3 2 2 1 1 2 1 1 2 2 2 2 2 3 2 1 2 2 2 3 3 2
2 2 1 1 1 1 2 2 1 1 1 1 1 1 1 2 2 1 1 2 3 3 3 3 2 1 2 2 2 1 2 2 2 2 2 2 2 2 2 2 3 3 2 3
2 2 2 1 2 2 1 1 1 1 1 1 2 3 3 2 2 2 2 3 3 2 2 3 2 2 2 2 2 1 2 2 2 2 2 2 2 2 2 2 3 3 2 3
2 2 2 2 1 2 2 1 1 1 1 1 1 2 1 2 2 2 3 3 3 3 1 2 2 3 2 2 1 1 2 2 2 2 2 2 2 2 2 2 2 3 2 3
2 2 2 2 2 2 2 1 1 1 1 2 2 2 2 3 2 2 3 2 2 2 1 2 3 3 2 1 1 2 2 2 2 2 2 2 2 2 2 3 2 3 3 3
2 2 2 1 1 1 2 2 2 1 1 2 2 3 2 2 2 2 2 3 3 2 2 2 3 2 1 1 1 2 2 2 2 2 2 2 2 2 2 2 2 2 2 3
2 2 1 1 1 2 2 2 1 1 1 1 2 2 2 2 2 2 2 2 2 2 1 2 2 1 1 1 1 1 1 2 1 1 1 1 2 2 2 2 2 2 2 2
2 2 2 3 2 2 1 1 1 1 1 1 2 2 1 1 1 1 1 1 1 1 1 1 1 1 1 0 1 1 1 1 1 1 1 1 1 2 2 2 2 2 3 3
1 2 1 2 2 1 1 1 2 2 2 2 2 2 1 1 1 1 0 0 0 1 1 1 1 0 0 0 0 1 1 1 1 1 1 1 1 2 2 2 2 2 2 2
Wind_Direction
264 270 244 244 246 229 222 224 229 248 251 259 250 240 238 224 207 196 197 196 197 196 209 209 212 218 206 205 163 140 140 149 179 176 155 153 167 173 162 179 197 198 210 258
275 272 257 265 256 238 235 235 241 255 265 265 255 233 233 223 204 205 212 212 210 208 204 205 210 209 205 206 208 171 159 176 179 151 145 153 172 165 161 213 213 196 220 242
262 289 302 268 242 225 222 221 217 240 252 254 251 234 224 222 211 208 217 220 216 214 212 210 208 199 203 203 209 190 180 180 173 158 148 163 172 152 193 231 216 229 237 238
248 318 238 251 245 216 223 242 232 243 257 242 235 242 240 223 206 213 216 218 221 218 215 209 195 191 191 183 188 185 176 178 170 155 159 144 139 182 237 234 228 231 243 249
203 233 269 292 277 215 214 261 248 245 258 265 260 355 293 240 208 210 213 213 214 208 199 187 185 178 166 170 176 171 181 193 191 182 180 182 207 267 272 254 261 250 250 245
200 220 241 265 284 274 138 284 285 247 246 236 152 238 260 245 209 210 203 195 190 173 161 170 184 161 152 174 180 190 198 203 198 188 185 205 226 247 259 246 264 280 277 257
221 234 259 272 294 96 167 268 300 253 227 215 216 228 228 211 216 200 189 175 156 155 171 187 172 151 164 190 220 222 195 189 196 196 200 213 224 239 242 259 299 300 296 285
198 221 254 268 118 192 247 285 287 266 244 230 231 217 194 195 194 173 166 159 146 147 164 178 154 153 179 227 247 223 177 176 192 201 209 196 181 238 242 209 243 291 309 311
205 227 261 228 229 251 260 271 272 258 253 221 216 221 214 210 205 188 167 163 143 145 142 108 141 159 191 236 235 187 146 153 168 183 188 174 185 203 237 238 242 270 279 295
252 264 270 267 266 277 270 265 266 254 245 217 221 218 220 211 204 194 175 164 148 141 152 191 230 166 208 227 215 168 164 162 162 167 168 175 206 203 211 226 238 254 261 272
255 275 292 280 264 271 285 282 278 277 249 213 195 214 217 209 202 197 199 178 155 162 180 212 223 232 233 210 185 178 174 168 167 173 177 196 261 247 237 240 236 238 241 240
246 253 253 273 278 277 281 284 279 272 273 235 192 200 199 199 202 188 186 172 160 167 184 218 233 251 249 209 181 184 183 187 191 187 193 202 245 316 308 273 286 283 278 269
250 267 260 274 288 288 282 287 288 271 239 233 219 180 177 183 179 167 174 179 188 197 204 214 229 249 256 218 183 189 206 215 206 201 203 223 243 259 310 332 328 312 304 298
260 263 271 272 274 284 286 293 308 311 270 184 165 140 137 140 155 175 199 212 203 199 209 217 227 248 254 227 194 196 207 221 217 212 211 220 231 239 249 279 313 320 319 315
268 248 247 267 283 295 309 339 10 356 31 50 86 124 144 160 198 226 228 207 187 196 219 223 234 251 248 226 211 210 212 217 216 211 212 215 222 230 241 257 272 290 308 314
288 291 268 267 277 294 325 339 301 282 269 175 106 159 177 183 212 244 229 196 197 222 233 230 238 248 246 226 222 225 221 221 218 204 206 216 221 224 238 249 262 271 285 291
280 284 279 282 277 282 280 268 250 251 247 222 227 217 128 93 57 296 286 268 249 249 246 238 246 255 247 235 224 223 220 215 222 226 222 224 225 229 238 245 258 272 278 280
249 251 249 249 251 255 272 276 269 264 254 240 178 145 156 190 238 264 278 300 315 307 281 259 250 244 239 237 235 223 216 217 215 218 227 231 235 231 237 250 260 271 285 293
292 279 268 257 246 238 256 270 273 264 262 194 178 214 245 256 262 271 277 264 258 274 279 275 267 258 247 239 234 210 206 211 224 228 225 235 247 243 244 252 262 269 274 285
325 320 313 306 294 262 265 276 269 267 259 206 193 221 260 270 265 263 249 250 250 253 263 265 262 253 247 238 238 209 207 211 214 221 229 227 230 243 250 255 260 266 270 276
303 304 308 310 313 305 274 247 226 251 269 215 206 223 244 263 257 244 235 261 271 269 261 252 246 241 234 232 229 205 205 206 212 218 226 231 236 246 254 259 264 266 267 273
296 297 300 303 306 315 317 304 247 242 261 261 250 239 243 266 272 271 253 247 256 271 268 239 242 246 244 228 189 202 211 210 215 224 231 235 239 247 257 264 264 267 268 271
290 287 294 291 281 296 324 326 280 241 240 248 247 244 246 255 254 251 273 269 262 266 267 247 256 254 246 205 196 206 214 216 219 224 231 238 238 243 255 260 262 265 269 273
294 295 290 287 280 291 300 301 299 282 263 267 261 252 244 260 276 262 261 268 275 278 267 261 261 248 218 191 208 216 222 224 225 227 233 239 247 255 258 260 266 271 271 274
280 280 275 262 259 261 266 284 311 310 301 301 295 286 268 251 253 262 261 260 267 282 294 277 265 259 234 212 216 226 230 229 226 222 232 245 250 255 261 265 268 272 276 279
273 268 266 262 256 254 257 257 268 279 282 294 306 310 306 297 278 271 264 270 275 294 301 282 272 281 266 237 256 252 240 253 266 263 253 253 255 257 266 275 277 280 281 283
280 276 278 288 278 250 242 242 245 257 254 248 276 293 298 308 317 320 302 288 300 299 303 309 316 310 301 281 279 282 271 272 271 264 258 262 267 267 269 273 279 283 286 287
Height
1486 1482 1481 1480 1478 1479 1479 1476 1476 1467 1463 1454 1455 1455 1455 1454 1455 1455 1456 1457 1457 1458 1458 1458 1458 1458 1458 1458 1459 1459 1459 1459 1460 1460 1461 1461 1461 1461 1462 1462 1463 1464 1464 1464
1486 1479 1478 1475 1471 1471 1471 1470 1467 1463 1457 1450 1451 1452 1453 1452 1452 1453 1453 1454 1454 1455 1456 1456 1456 1456 1456 1456 1457 1457 1457 1458 1458 1458 1458 1458 1459 1459 1459 1460 1460 1461 1461 1461
1484 1480 1476 1473 1465 1463 1464 1461 1461 1459 1451 1449 1450 1449 1449 1449 1450 1450 1450 1451 1451 1452 1452 1453 1453 1454 1454 1454 1455 1455 1455 1455 1456 1456 1456 1456 1457 1457 1457 1457 1458 1458 1458 1458
1484 1482 1477 1462 1456 1455 1455 1454 1453 1450 1447 1446 1446 1446 1446 1446 1447 1447 1448 1449 1449 1449 1450 1450 1451 1451 1451 1452 1452 1452 1452 1453 1453 1454 1454 1454 1454 1454 1454 1455 1455 1455 1455 1455
1483 1479 1469 1459 1455 1454 1455 1452 1448 1447 1445 1445 1445 1445 1445 1444 1445 1445 1445 1446 1446 1447 1447 1448 1448 1448 1448 1448 1449 1449 1450 1450 1451 1451 1451 1451 1451 1451 1452 1452 1452 1451 1451 1452
1480 1476 1470 1457 1452 1450 1453 1453 1445 1444 1443 1444 1444 1447 1444 1442 1443 1443 1443 1443 1444 1444 1445 1445 1445 1445 1445 1445 1446 1446 1447 1448 1448 1449 1449 1449 1449 1449 1449 1449 1449 1448 1448 1449
1476 1473 1464 1454 1451 1451 1457 1451 1443 1442 1441 1442 1442 1442 1441 1440 1440 1441 1441 1441 1442 1442 1442 1442 1442 1443 1443 1443 1443 1444 1444 1445 1446 1446 1446 1446 1446 1446 1446 1446 1446 1446 1446 1446
1476 1473 1464 1451 1451 1453 1449 1444 1441 1440 1439 1439 1438 1438 1438 1438 1438 1438 1438 1439 1439 1439 1440 1440 1440 1440 1441 1441 1441 1441 1441 1442 1442 1443 1443 1443 1443 1443 1443 1443 1443 1443 1443 1443
1465 1459 1450 1448 1447 1445 1444 1442 1439 1438 1437 1436 1435 1435 1436 1436 1436 1436 1437 1437 1437 1437 1437 1438 1438 1439 1439 1439 1439 1438 1439 1439 1440 1441 1441 1441 1441 1440 1440 1441 1440 1440 1440 1440
1458 1450 1446 1444 1443 1441 1440 1438 1437 1436 1435 1434 1433 1433 1434 1434 1434 1434 1435 1435 1435 1435 1435 1436 1436 1437 1437 1437 1437 1437 1437 1437 1437 1438 1438 1438 1438 1438 1438 1438 1438 1438 1438 1438
1453 1447 1443 1439 1439 1438 1436 1435 1433 1432 1432 1432 1431 1432 1432 1432 1432 1433 1433 1433 1433 1433 1433 1434 1434 1435 1435 1435 1435 1435 1434 1435 1435 1436 1436 1436 1436 1436 1436 1437 1437 1436 1436 1435
1447 1442 1441 1437 1435 1435 1433 1431 1430 1429 1428 1429 1429 1429 1430 1430 1430 1431 1431 1431 1431 1431 1432 1432 1433 1433 1433 1433 1433 1433 1433 1433 1433 1433 1434 1434 1434 1434 1434 1435 1434 1434 1434 1433
1439 1437 1436 1434 1432 1431 1430 1428 1427 1426 1426 1426 1426 1427 1427 1428 1428 1429 1429 1429 1429 1429 1430 1430 1431 1431 1431 1431 1431 1431 1431 1431 1431 1432 1432 1432 1432 1432 1431 1432 1432 1431 1431 1431
1436 1434 1432 1430 1429 1428 1427 1426 1425 1424 1424 1424 1424 1425 1425 1425 1426 1426 1427 1427 1427 1427 1428 1428 1428 1429 1429 1429 1429 1429 1429 1430 1430 1430 1430 1430 1430 1430 1430 1429 1429 1428 1429 1428
1431 1430 1429 1427 1425 1424 1424 1423 1422 1422 1422 1422 1422 1423 1423 1423 1424 1424 1424 1425 1425 1425 1426 1426 1426 1427 1427 1427 1427 1427 1428 1428 1428 1428 1428 1428 1428 1428 1428 1427 1427 1426 1426 1426
1427 1426 1425 1423 1422 1421 1421 1421 1420 1420 1420 1420 1420 1421 1421 1421 1422 1422 1422 1423 1423 1423 1423 1424 1424 1424 1425 1425 1425 1425 1426 1426 1426 1426 1426 1426 1426 1426 1425 1425 1425 1424 1424 1423
1425 1422 1421 1420 1419 1419 1419 1419 1419 1419 1419 1419 1419 1419 1419 1419 1420 1420 1420 1421 1421 1421 1422 1422 1422 1422 1422 1423 1423 1423 1423 1423 1424 1424 1424 1424 1424 1423 1423 1423 1423 1422 1422 1421
1422 1420 1419 1419 1418 1417 1417 1417 1417 1417 1417 1417 1417 1417 1417 1417 1417 1418 1418 1419 1419 1419 1419 1419 1420 1420 1420 1420 1420 1421 1421 1421 1421 1421 1421 1422 1422 1422 1421 1421 1420 1420 1419 1419
1419 1418 1417 1417 1416 1415 1415 1415 1415 1415 1415 1415 1415 1415 1415 1416 1416 1416 1417 1417 1417 1417 1417 1417 1417 1418 1418 1418 1418 1418 1418 1419 1419 1419 1419 1419 1419 1419 1419 1419 1418 1418 1417 1416
1417 1416 1415 1415 1414 1414 1413 1413 1413 1413 1413 1413 1413 1413 1414 1414 1414 1414 1414 1415 1415 1415 1415 1415 1415 1415 1415 1415 1416 1416 1416 1416 1417 1417 1417 1417 1417 1417 1417 1417 1416 1416 1415 1414
1415 1415 1414 1413 1412 1412 1412 1412 1412 1411 1411 1411 1411 1411 1412 1412 1412 1412 1412 1412 1412 1412 1413 1413 1413 1413 1413 1413 1413 1413 1414 1414 1414 1415 1415 1415 1415 1415 1415 1414 1414 1413 1413 1412
1414 1413 1412 1411 1411 1410 1410 1410 1410 1410 1409 1409 1409 1409 1410 1410 1410 1410 1410 1410 1410 1410 1410 1410 1410 1410 1410 1411 1411 1411 1411 1412 1412 1412 1413 1413 1413 1412 1412 1412 1411 1411 1410 1409
1413 1412 1411 1410 1410 1409 1409 1408 1408 1408 1408 1408 1408 1408 1408 1407 1407 1407 1407 1407 1407 1407 1407 1407 1407 1408 1408 1408 1408 1409 1409 1409 1410 1410 1410 1410 1410 1410 1410 1410 1409 1408 1407 1407
1411 1410 1409 1409 1408 1408 1407 1407 1407 1407 1406 1406 1406 1406 1406 1405 1405 1405 1405 1405 1404 1404 1404 1405 1405 1405 1405 1405 1406 1406 1407 1407 1407 1408 1408 1408 1408 1408 1408 1407 1406 1406 1405 1404
1410 1409 1408 1407 1407 1406 1406 1405 1405 1405 1404 1404 1404 1403 1403 1403 1403 1403 1402 1402 1402 1402 1402 1402 1402 1403 1403 1403 1403 1404 1404 1405 1405 1405 1405 1405 1406 1405 1405 1405 1404 1403 1402 1402
1408 1407 1406 1406 1405 1404 1404 1403 1403 1403 1402 1402 1402 1401 1401 1401 1401 1400 1400 1400 1400 1400 1400 1400 1400 1400 1400 1401 1401 1402 1402 1402 1403 1403 1403 1403 1403 1403 1403 1402 1402 1401 1400 1400
1406 1405 1404 1404 1403 1403 1402 1402 1401 1401 1401 1400 1400 1400 1399 1399 1399 1399 1398 1398 1398 1398 1398 1398 1399 1399 1399 1399 1399 1400 1400 1400 1401 1401 1401 1401 1401 1401 1401 1400 1400 1399 1398 1398